Location: Unspecified
(48.2082°N, 0.0000°E)
Time: 05:48:58
(UTC+00:00)

Altair - Pass Details

Date: 27 June 2019
Orbit: 1501 x 1683 km, 47.2° (Epoch: 21 July)

Event Time Altitude Azimuth Distance (km) Brightness Sun altitude
Rises 16:22:21 0° 187° (S) 4,641 10.1 33.7°
Reaches altitude 10° 16:26:21 10° 172° (S) 3,683 9.5 33.1°
Maximum altitude 16:32:37 21° 128° (SE) 2,981 8.8 32.0°
Drops below altitude 10° 16:39:00 10° 86° (E) 3,783 9.1 31.0°
Sets 16:43:09 0° 71° (ENE) 4,804 9.6 30.3°
